sat.trackr.live / text

‹ back to catalog

STARLINK-36747

NORAD 67730 · 2026-026K

PAYLOAD ACTIVE UNKNOWN

§ Identity

Operator
Country
US
Launch date
2026-02-11
Launch site
AFWTR
Launch vehicle
Mass (kg)
RCS (m²)

Purposes: comms

External: N2YO · Heavens-Above · Gunter

§ Orbital elements

Epoch: 2026-09-18T02:46:03.315360Z

Period
93.91 min
Inclination
97.2843°
Eccentricity
0.0001497
Mean motion
15.33434688 rev/d
Perigee alt
464.5 km
Apogee alt
466.6 km
Semi-major
6,843.7 km
B*
4.0995e-4
RAAN
312.9581°
Arg perigee
107.5285°
Mean anomaly
252.6121°
Rev number
3,361

§ Raw data

STARLINK-367471 67730U 26026K   26261.11531615  .00013179  00000+0  40995-3 0  99992 67730  97.2843 312.9581 0001497 107.5285 252.6121 15.33434688 33613

JSON: /api/v1/satellites/67730 · /tle

For live sub-satellite position, see the globe view (requires WebGL).

§ Visibility from observer

Set your observer location to see the next 7 days of passes ≥ 10°. The values pass through the URL so the page stays shareable.

No JS? Fill the form by hand. The geolocation button needs JavaScript.